Location: East Guldeford
(50.9500°N, 0.7500°E)
Time: 09:43:35
(UTC+00:00)

Cosmos 2242 Rocket - Pass Details

Date: 12 May 2021
Orbit: 619 x 650 km, 82.5° (Epoch: 16 June)

Event Time Altitude Azimuth Distance (km) Brightness Sun altitude
Exits shadow 23:31:03 54° 184° (S) 771 3.6 -20.5°
Maximum altitude 23:32:04 86° 99° (E) 638 3.5 -20.5°
Drops below altitude 10° 23:36:34 10° 11° (N) 2,029 7.3 -20.6°
Sets 23:38:50 0° 11° (N) 2,948 8.4 -20.6°
